• In Hungary
  • List of Countries
  • For 7 days
  • Water Temperature
  • Satellite Maps
  • Weather Map
  • News
  • Weather Widgets
  • user-avatar
    Login

    Hourly Weather Tambov

    Today, 20 June, Wednesday

    Time Temperature Precipitation Wind Pressure Humidity
    00:00 +18°C° 0 mm 2 mps 745 mmHg 89%
    01:00 +18°C° 0 mm 2 mps 745 mmHg 91%
    02:00 +17°C° 0 mm 2 mps 745 mmHg 92%
    03:00 +17°C° 0 mm 2 mps 744 mmHg 93%
    04:00 +18°C° 0.1 mm 3 mps 744 mmHg 92%
    05:00 +19°C° 0.1 mm 3 mps 744 mmHg 91%
    06:00 +19°C° 0.1 mm 4 mps 744 mmHg 90%
    07:00 +21°C° 0.3 mm 4 mps 744 mmHg 86%
    08:00 +22°C° 0.3 mm 5 mps 744 mmHg 82%
    09:00 +25°C° 0 mm 5 mps 744 mmHg 76%
    10:00 +24°C° 0.6 mm 6 mps 744 mmHg 73%
    11:00 +26°C° 0.6 mm 6 mps 744 mmHg 70%
    12:00 +26°C° 0.6 mm 6 mps 744 mmHg 67%
    13:00 +26°C° 0.1 mm 6 mps 744 mmHg 65%
    14:00 +26°C° 0.1 mm 7 mps 744 mmHg 63%
    15:00 +27°C° 0 mm 7 mps 744 mmHg 62%
    16:00 +26°C° 0 mm 6 mps 744 mmHg 65%
    17:00 +24°C° 0 mm 6 mps 744 mmHg 68%
    18:00 +23°C° 0 mm 5 mps 744 mmHg 71%
    19:00 +21°C° 0 mm 4 mps 744 mmHg 75%
    20:00 +20°C° 0 mm 4 mps 745 mmHg 78%
    21:00 +18°C° 0 mm 3 mps 745 mmHg 81%
    22:00 +17°C° 0 mm 3 mps 745 mmHg 83%
    23:00 +16°C° 0 mm 3 mps 745 mmHg 85%

    Tomorrow, 21 June, Thursday

    Time Temperature Precipitation Wind Pressure Humidity
    00:00 +14°C° 0 mm 3 mps 746 mmHg 87%
    01:00 +14°C° 0 mm 3 mps 746 mmHg 88%
    02:00 +14°C° 0 mm 3 mps 746 mmHg 89%
    03:00 +13°C° 0 mm 3 mps 746 mmHg 90%
    04:00 +14°C° 0 mm 3 mps 746 mmHg 88%
    05:00 +14°C° 0 mm 3 mps 746 mmHg 86%
    06:00 +16°C° 0 mm 3 mps 747 mmHg 84%
    07:00 +18°C° 0 mm 3 mps 747 mmHg 79%
    08:00 +19°C° 0 mm 3 mps 747 mmHg 74%
    09:00 +21°C° 0 mm 4 mps 747 mmHg 69%
    10:00 +22°C° 0 mm 4 mps 747 mmHg 65%
    11:00 +23°C° 0 mm 5 mps 747 mmHg 61%
    12:00 +25°C° 0 mm 5 mps 747 mmHg 58%
    13:00 +25°C° 0 mm 5 mps 747 mmHg 58%
    14:00 +25°C° 0 mm 5 mps 747 mmHg 58%
    15:00 +25°C° 0 mm 5 mps 747 mmHg 58%
    16:00 +25°C° 0 mm 5 mps 746 mmHg 62%
    17:00 +25°C° 0 mm 4 mps 746 mmHg 66%
    18:00 +25°C° 0 mm 3 mps 746 mmHg 69%
    19:00 +22°C° 0 mm 3 mps 746 mmHg 75%
    20:00 +20°C° 0 mm 2 mps 746 mmHg 80%
    21:00 +18°C° 0 mm 2 mps 747 mmHg 85%
    22:00 +18°C° 0 mm 2 mps 747 mmHg 87%
    23:00 +17°C° 0 mm 2 mps 747 mmHg 88%

    Day after tomorrow, 22 June, Friday

    Time Temperature Precipitation Wind Pressure Humidity
    00:00 +17°C° 0 mm 2 mps 747 mmHg 90%
    01:00 +16°C° 0 mm 2 mps 747 mmHg 90%
    02:00 +16°C° 0 mm 2 mps 747 mmHg 90%
    03:00 +16°C° 0 mm 1 mps 747 mmHg 91%
    04:00 +18°C° 0 mm 1 mps 747 mmHg 89%
    05:00 +18°C° 0 mm 1 mps 747 mmHg 87%
    06:00 +19°C° 0 mm 1 mps 747 mmHg 85%
    07:00 +21°C° 0 mm 1 mps 747 mmHg 79%
    08:00 +21°C° 0 mm 2 mps 747 mmHg 74%
    09:00 +24°C° 0 mm 2 mps 747 mmHg 68%
    10:00 +25°C° 0 mm 2 mps 747 mmHg 65%
    11:00 +26°C° 0 mm 3 mps 747 mmHg 61%
    12:00 +27°C° 0 mm 3 mps 747 mmHg 57%
    13:00 +27°C° 0 mm 3 mps 747 mmHg 57%
    14:00 +28°C° 0 mm 3 mps 746 mmHg 56%
    15:00 +28°C° 0 mm 3 mps 746 mmHg 55%
    16:00 +28°C° 0 mm 3 mps 746 mmHg 59%
    17:00 +28°C° 0 mm 2 mps 746 mmHg 63%
    18:00 +28°C° 0 mm 2 mps 745 mmHg 67%
    19:00 +26°C° 0 mm 2 mps 745 mmHg 71%
    20:00 +24°C° 0 mm 2 mps 746 mmHg 75%
    21:00 +21°C° 0 mm 2 mps 746 mmHg 79%
    22:00 +20°C° 0 mm 2 mps 746 mmHg 80%
    23:00 +20°C° 0 mm 2 mps 746 mmHg 82%

    23 June, Saturday

    Time Temperature Precipitation Wind Pressure Humidity
    00:00 +19°C° 0 mm 2 mps 746 mmHg 83%
    01:00 +18°C° 0 mm 2 mps 746 mmHg 83%
    02:00 +18°C° 0 mm 3 mps 746 mmHg 83%
    03:00 +18°C° 0 mm 3 mps 745 mmHg 84%
    04:00 +18°C° 0 mm 3 mps 745 mmHg 83%
    05:00 +19°C° 0 mm 3 mps 745 mmHg 81%
    06:00 +19°C° 0 mm 3 mps 746 mmHg 80%
    07:00 +21°C° 0 mm 3 mps 745 mmHg 76%
    08:00 +23°C° 0 mm 4 mps 745 mmHg 72%
    09:00 +26°C° 0 mm 4 mps 745 mmHg 67%
    10:00 +27°C° 0 mm 5 mps 745 mmHg 63%
    11:00 +28°C° 0 mm 5 mps 745 mmHg 58%
    12:00 +29°C° 0 mm 5 mps 745 mmHg 54%
    13:00 +30°C° 0 mm 5 mps 745 mmHg 53%
    14:00 +30°C° 0 mm 5 mps 744 mmHg 53%
    15:00 +30°C° 0 mm 5 mps 744 mmHg 53%
    16:00 +30°C° 0 mm 5 mps 744 mmHg 58%
    17:00 +29°C° 0 mm 4 mps 744 mmHg 63%
    18:00 +29°C° 0 mm 4 mps 743 mmHg 68%
    19:00 +27°C° 0 mm 4 mps 743 mmHg 70%
    20:00 +26°C° 0 mm 4 mps 743 mmHg 71%
    21:00 +23°C° 0 mm 5 mps 743 mmHg 73%
    22:00 +23°C° 0 mm 5 mps 743 mmHg 71%
    23:00 +23°C° 0 mm 5 mps 743 mmHg 68%

    24 June, Sunday

    Time Temperature Precipitation Wind Pressure Humidity
    00:00 +22°C° 0 mm 5 mps 742 mmHg 66%
    01:00 +22°C° 0 mm 5 mps 742 mmHg 65%
    02:00 +22°C° 0 mm 5 mps 742 mmHg 64%
    03:00 +21°C° 0 mm 5 mps 742 mmHg 63%
    04:00 +21°C° 0 mm 4 mps 742 mmHg 66%
    05:00 +20°C° 0 mm 4 mps 742 mmHg 69%
    06:00 +20°C° 0 mm 4 mps 742 mmHg 71%
    07:00 +20°C° 0.1 mm 3 mps 743 mmHg 73%
    08:00 +21°C° 0.1 mm 3 mps 743 mmHg 75%
    09:00 +21°C° 0.1 mm 2 mps 743 mmHg 77%
    10:00 +20°C° 1.2 mm 3 mps 744 mmHg 81%
    11:00 +20°C° 1.2 mm 3 mps 744 mmHg 85%
    12:00 +19°C° 1.2 mm 3 mps 745 mmHg 89%
    13:00 +18°C° 0.8 mm 4 mps 745 mmHg 89%
    14:00 +18°C° 0.8 mm 4 mps 745 mmHg 89%
    15:00 +18°C° 0.8 mm 4 mps 746 mmHg 90%
    16:00 +18°C° 0.1 mm 4 mps 746 mmHg 87%
    17:00 +18°C° 0.1 mm 4 mps 746 mmHg 85%
    18:00 +18°C° 0.1 mm 4 mps 747 mmHg 83%
    19:00 +17°C° 0 mm 3 mps 747 mmHg 86%
    20:00 +16°C° 0 mm 3 mps 747 mmHg 89%
    21:00 +15°C° 0 mm 2 mps 748 mmHg 92%
    22:00 +14°C° 0 mm 2 mps 748 mmHg 92%
    23:00 +14°C° 0 mm 2 mps 748 mmHg 92%

    25 June, Monday

    Time Temperature Precipitation Wind Pressure Humidity
    00:00 +13°C° 0 mm 2 mps 748 mmHg 92%
    01:00 +13°C° 0 mm 2 mps 748 mmHg 92%
    02:00 +13°C° 0 mm 2 mps 748 mmHg 92%
    03:00 +13°C° 0 mm 2 mps 749 mmHg 92%
    04:00 +13°C° 0 mm 2 mps 749 mmHg 91%
    05:00 +14°C° 0 mm 2 mps 749 mmHg 89%
    06:00 +15°C° 0 mm 2 mps 749 mmHg 87%
    07:00 +17°C° 0 mm 2 mps 749 mmHg 81%
    08:00 +18°C° 0 mm 2 mps 749 mmHg 74%
    09:00 +20°C° 0 mm 2 mps 749 mmHg 68%
    10:00 +21°C° 0 mm 2 mps 749 mmHg 64%
    11:00 +23°C° 0 mm 2 mps 749 mmHg 59%
    12:00 +24°C° 0 mm 3 mps 749 mmHg 55%
    13:00 +24°C° 0 mm 3 mps 749 mmHg 55%
    14:00 +25°C° 0 mm 2 mps 749 mmHg 55%
    15:00 +25°C° 0 mm 2 mps 749 mmHg 55%
    16:00 +25°C° 0.1 mm 2 mps 749 mmHg 58%
    17:00 +24°C° 0.1 mm 2 mps 749 mmHg 62%
    18:00 +24°C° 0.1 mm 2 mps 749 mmHg 66%
    19:00 +21°C° 0.1 mm 2 mps 749 mmHg 71%
    20:00 +19°C° 0.1 mm 2 mps 749 mmHg 76%
    21:00 +17°C° 0.1 mm 2 mps 749 mmHg 82%
    22:00 +17°C° 0 mm 2 mps 749 mmHg 84%
    23:00 +16°C° 0 mm 2 mps 749 mmHg 86%
    Show more